When you browse on this site, cookies collect data to enhance your experience and personalize the content and advertising you see.
Visit our Privacy Policy to learn more. By continuing to use the site, you agree to this use of cookies and data.
  • In Latvia
  • List of Countries
  • For 7 days
  • Water Temperature
  • Weather Map
  • Weather Widgets
  • user-avatar
    Login

    Hourly Weather Newcastle

    Today, 25 January, Saturday

    Time Temperature Precipitation Wind Pressure Humidity
    00:00 +23°C° 0.1 mm 4 mps 758 mmHg 95%
    01:00 +24°C° 0.1 mm 3 mps 758 mmHg 96%
    02:00 +24°C° 0 mm 3 mps 758 mmHg 96%
    03:00 +24°C° 0 mm 3 mps 758 mmHg 96%
    04:00 +24°C° 0 mm 2 mps 758 mmHg 95%
    05:00 +25°C° 0 mm 2 mps 758 mmHg 93%
    06:00 +25°C° 0 mm 3 mps 759 mmHg 92%
    07:00 +25°C° 0 mm 3 mps 759 mmHg 90%
    08:00 +26°C° 0 mm 3 mps 759 mmHg 88%
    09:00 +26°C° 0 mm 3 mps 759 mmHg 86%
    10:00 +26°C° 0 mm 3 mps 759 mmHg 83%
    11:00 +27°C° 0 mm 3 mps 759 mmHg 80%
    12:00 +28°C° 0 mm 3 mps 758 mmHg 76%
    13:00 +29°C° 0 mm 3 mps 758 mmHg 73%
    14:00 +29°C° 0 mm 3 mps 758 mmHg 73%
    15:00 +29°C° 0 mm 3 mps 757 mmHg 73%
    16:00 +30°C° 0 mm 3 mps 757 mmHg 76%
    17:00 +28°C° 0.1 mm 3 mps 757 mmHg 83%
    18:00 +27°C° 0.1 mm 3 mps 758 mmHg 89%
    19:00 +26°C° 0.1 mm 3 mps 758 mmHg 95%
    20:00 +26°C° 0.1 mm 2 mps 758 mmHg 96%
    21:00 +26°C° 0.1 mm 2 mps 758 mmHg 97%
    22:00 +25°C° 0 mm 2 mps 758 mmHg 97%
    23:00 +25°C° 0 mm 2 mps 758 mmHg 98%

    Tomorrow, 26 January, Sunday

    Time Temperature Precipitation Wind Pressure Humidity
    00:00 +24°C° 0 mm 2 mps 758 mmHg 98%
    01:00 +24°C° 0 mm 3 mps 758 mmHg 98%
    02:00 +24°C° 0 mm 2 mps 757 mmHg 98%
    03:00 +24°C° 0 mm 2 mps 757 mmHg 98%
    04:00 +24°C° 0 mm 2 mps 757 mmHg 98%
    05:00 +24°C° 0 mm 2 mps 758 mmHg 95%
    06:00 +25°C° 0 mm 2 mps 758 mmHg 93%
    07:00 +26°C° 0 mm 1 mps 759 mmHg 91%
    08:00 +27°C° 0 mm 1 mps 758 mmHg 82%
    09:00 +29°C° 0 mm 1 mps 758 mmHg 74%
    10:00 +31°C° 0 mm 1 mps 758 mmHg 65%
    11:00 +31°C° 0 mm 2 mps 758 mmHg 63%
    12:00 +33°C° 0 mm 3 mps 757 mmHg 61%
    13:00 +34°C° 0 mm 3 mps 757 mmHg 59%
    14:00 +33°C° 0.2 mm 4 mps 757 mmHg 60%
    15:00 +33°C° 0.2 mm 5 mps 756 mmHg 61%
    16:00 +33°C° 0.2 mm 6 mps 756 mmHg 62%
    17:00 +29°C° 2.8 mm 6 mps 757 mmHg 72%
    18:00 +27°C° 2.8 mm 7 mps 757 mmHg 82%
    19:00 +23°C° 2.8 mm 7 mps 758 mmHg 92%
    20:00 +22°C° 0.1 mm 6 mps 758 mmHg 92%
    21:00 +22°C° 0.1 mm 4 mps 758 mmHg 92%
    22:00 +21°C° 0.1 mm 3 mps 758 mmHg 92%
    23:00 +21°C° 0 mm 3 mps 758 mmHg 92%

    Day after tomorrow, 27 January, Monday

    Time Temperature Precipitation Wind Pressure Humidity
    00:00 +21°C° 0 mm 2 mps 758 mmHg 93%
    01:00 +21°C° 0 mm 2 mps 758 mmHg 93%
    02:00 +21°C° 0 mm 2 mps 758 mmHg 94%
    03:00 +21°C° 0 mm 2 mps 758 mmHg 94%
    04:00 +21°C° 0 mm 2 mps 758 mmHg 95%
    05:00 +23°C° 0 mm 2 mps 758 mmHg 93%
    06:00 +24°C° 0 mm 2 mps 759 mmHg 92%
    07:00 +25°C° 0 mm 1 mps 759 mmHg 91%
    08:00 +27°C° 0 mm 2 mps 759 mmHg 83%
    09:00 +28°C° 0 mm 2 mps 759 mmHg 75%
    10:00 +30°C° 0 mm 2 mps 759 mmHg 67%
    11:00 +30°C° 0 mm 2 mps 759 mmHg 67%
    12:00 +30°C° 0 mm 3 mps 758 mmHg 67%
    13:00 +31°C° 0 mm 3 mps 758 mmHg 66%
    14:00 +31°C° 0 mm 3 mps 757 mmHg 65%
    15:00 +32°C° 0 mm 4 mps 757 mmHg 64%
    16:00 +32°C° 0 mm 4 mps 756 mmHg 64%
    17:00 +30°C° 0 mm 5 mps 756 mmHg 68%
    18:00 +29°C° 0 mm 5 mps 757 mmHg 73%
    19:00 +28°C° 0 mm 5 mps 757 mmHg 78%
    20:00 +27°C° 0 mm 5 mps 757 mmHg 81%
    21:00 +26°C° 0 mm 4 mps 758 mmHg 84%
    22:00 +25°C° 0 mm 4 mps 758 mmHg 88%
    23:00 +25°C° 0 mm 3 mps 758 mmHg 89%

    28 January, Tuesday

    Time Temperature Precipitation Wind Pressure Humidity
    00:00 +24°C° 0 mm 3 mps 758 mmHg 91%
    01:00 +24°C° 0 mm 3 mps 757 mmHg 93%
    02:00 +23°C° 0 mm 2 mps 757 mmHg 94%
    03:00 +23°C° 0 mm 1 mps 757 mmHg 95%
    04:00 +23°C° 0 mm 1 mps 757 mmHg 96%
    05:00 +25°C° 0 mm 1 mps 757 mmHg 91%
    06:00 +26°C° 0 mm 1 mps 758 mmHg 86%
    07:00 +27°C° 0 mm 1 mps 758 mmHg 81%
    08:00 +29°C° 0 mm 1 mps 758 mmHg 71%
    09:00 +32°C° 0 mm 1 mps 758 mmHg 62%
    10:00 +34°C° 0 mm 1 mps 758 mmHg 53%
    11:00 +36°C° 0.1 mm 2 mps 758 mmHg 51%
    12:00 +36°C° 0.1 mm 2 mps 757 mmHg 48%
    13:00 +37°C° 0.1 mm 3 mps 756 mmHg 46%
    14:00 +36°C° 0.2 mm 3 mps 756 mmHg 51%
    15:00 +35°C° 0.2 mm 3 mps 756 mmHg 56%
    16:00 +34°C° 0.2 mm 3 mps 755 mmHg 61%
    17:00 +31°C° 1 mm 3 mps 756 mmHg 70%
    18:00 +29°C° 1 mm 3 mps 756 mmHg 80%
    19:00 +27°C° 1 mm 3 mps 757 mmHg 89%
    20:00 +26°C° 0.2 mm 3 mps 757 mmHg 90%
    21:00 +26°C° 0.2 mm 4 mps 758 mmHg 92%
    22:00 +26°C° 0.2 mm 5 mps 759 mmHg 93%
    23:00 +26°C° 0.1 mm 5 mps 759 mmHg 94%

    29 January, Wednesday

    Time Temperature Precipitation Wind Pressure Humidity
    00:00 +25°C° 0.1 mm 5 mps 759 mmHg 94%
    01:00 +25°C° 0.1 mm 5 mps 759 mmHg 94%
    02:00 +25°C° 0.1 mm 5 mps 759 mmHg 94%
    03:00 +25°C° 0.1 mm 5 mps 759 mmHg 93%
    04:00 +23°C° 0.1 mm 5 mps 759 mmHg 92%
    05:00 +23°C° 0 mm 5 mps 759 mmHg 90%
    06:00 +23°C° 0 mm 5 mps 760 mmHg 89%
    07:00 +23°C° 0 mm 5 mps 760 mmHg 87%
    08:00 +25°C° 0 mm 5 mps 760 mmHg 83%
    09:00 +25°C° 0 mm 5 mps 761 mmHg 78%
    10:00 +26°C° 0 mm 5 mps 761 mmHg 73%
    11:00 +26°C° 0 mm 4 mps 761 mmHg 72%
    12:00 +26°C° 0 mm 4 mps 760 mmHg 71%
    13:00 +27°C° 0 mm 4 mps 760 mmHg 69%
    14:00 +27°C° 0 mm 4 mps 760 mmHg 68%
    15:00 +27°C° 0 mm 4 mps 759 mmHg 67%
    16:00 +27°C° 0 mm 4 mps 759 mmHg 66%
    17:00 +26°C° 0 mm 4 mps 760 mmHg 72%
    18:00 +25°C° 0 mm 3 mps 760 mmHg 78%
    19:00 +24°C° 0 mm 3 mps 761 mmHg 84%
    20:00 +22°C° 0 mm 3 mps 761 mmHg 87%
    21:00 +23°C° 0 mm 2 mps 762 mmHg 90%
    22:00 +21°C° 0 mm 2 mps 762 mmHg 94%
    23:00 +21°C° 0 mm 2 mps 762 mmHg 92%

    30 January, Thursday

    Time Temperature Precipitation Wind Pressure Humidity
    00:00 +23°C° 0 mm 2 mps 762 mmHg 91%
    01:00 +23°C° 0 mm 1 mps 761 mmHg 90%
    02:00 +23°C° 0 mm 1 mps 761 mmHg 89%
    03:00 +23°C° 0 mm 2 mps 761 mmHg 89%
    04:00 +23°C° 0 mm 2 mps 761 mmHg 89%
    05:00 +23°C° 0 mm 2 mps 762 mmHg 87%
    06:00 +24°C° 0 mm 2 mps 762 mmHg 85%
    07:00 +24°C° 0 mm 2 mps 762 mmHg 83%
    08:00 +25°C° 0 mm 2 mps 762 mmHg 78%
    09:00 +26°C° 0 mm 2 mps 763 mmHg 72%
    10:00 +27°C° 0 mm 2 mps 763 mmHg 67%
    11:00 +28°C° 0 mm 2 mps 762 mmHg 63%
    12:00 +29°C° 0 mm 3 mps 762 mmHg 60%
    13:00 +30°C° 0 mm 3 mps 761 mmHg 56%
    14:00 +30°C° 0 mm 3 mps 761 mmHg 59%
    15:00 +30°C° 0 mm 4 mps 760 mmHg 62%
    16:00 +29°C° 0 mm 4 mps 760 mmHg 65%
    17:00 +28°C° 0 mm 4 mps 760 mmHg 74%
    18:00 +27°C° 0 mm 4 mps 761 mmHg 82%
    19:00 +25°C° 0 mm 4 mps 761 mmHg 91%
    20:00 +25°C° 0 mm 4 mps 761 mmHg 93%
    21:00 +24°C° 0 mm 3 mps 762 mmHg 95%
    22:00 +24°C° 0 mm 3 mps 762 mmHg 97%
    23:00 +24°C° 0 mm 3 mps 762 mmHg 98%
    Show more